owner,sensor,date,latitude,longitude,vertical_datum,mass_concentration_of_oxygen_in_sea_water,qcFlag 
SCCF RECON,ioos:station:SCCF:18:1,2013-06-01T00:00:00Z,26.6955,-81.8138,1.6,7.84,1111122 
SCCF RECON,ioos:station:SCCF:18:1,2013-06-01T01:00:00Z,26.6955,-81.8138,1.63,7.56,1111122 
SCCF RECON,ioos:station:SCCF:18:1,2013-06-01T02:00:00Z,26.6955,-81.8138,1.65,7.44,1111122 
SCCF RECON,ioos:station:SCCF:18:1,2013-06-01T03:00:00Z,26.6955,-81.8138,1.68,7.55,1111122 
SCCF RECON,ioos:station:SCCF:18:1,2013-06-01T04:00:00Z,26.6955,-81.8138,1.63,7.49,1111122 
SCCF RECON,ioos:station:SCCF:18:1,2013-06-01T05:00:00Z,26.6955,-81.8138,1.578,7.26,1111122 
SCCF RECON,ioos:station:SCCF:18:1,2013-06-01T06:00:00Z,26.6955,-81.8138,1.5,7.02,1111122 
SCCF RECON,ioos:station:SCCF:18:1,2013-06-01T07:00:00Z,26.6955,-81.8138,1.47,6.99,1111122 
SCCF RECON,ioos:station:SCCF:18:1,2013-06-01T08:00:00Z,26.6955,-81.8138,1.43,7.03,1111122 
SCCF RECON,ioos:station:SCCF:18:1,2013-06-01T09:00:00Z,26.6955,-81.8138,1.4,6.69,1111122 
SCCF RECON,ioos:station:SCCF:18:1,2013-06-01T10:00:00Z,26.6955,-81.8138,1.375,6.41,1111122 
SCCF RECON,ioos:station:SCCF:18:1,2013-06-01T11:00:00Z,26.6955,-81.8138,1.44,6.47,1111122 
SCCF RECON,ioos:station:SCCF:18:1,2013-06-01T12:00:00Z,26.6955,-81.8138,1.52,6.23,1111122 
SCCF RECON,ioos:station:SCCF:18:1,2013-06-01T13:00:00Z,26.6955,-81.8138,1.6,6.55,1111122 
SCCF RECON,ioos:station:SCCF:18:1,2013-06-01T14:00:00Z,26.6955,-81.8138,1.62,6.3,1111122 
SCCF RECON,ioos:station:SCCF:18:1,2013-06-01T15:00:00Z,26.6955,-81.8138,1.672,6.61,1111122 
SCCF RECON,ioos:station:SCCF:18:1,2013-06-01T16:00:00Z,26.6955,-81.8138,1.73,6.86,1111122 
SCCF RECON,ioos:station:SCCF:18:1,2013-06-01T17:00:00Z,26.6955,-81.8138,1.74,7.74,1111122 
SCCF RECON,ioos:station:SCCF:18:1,2013-06-01T18:00:00Z,26.6955,-81.8138,1.69,7.85,1111122 
SCCF RECON,ioos:station:SCCF:18:1,2013-06-01T19:00:00Z,26.6955,-81.8138,1.63,7.7,1111122 
SCCF RECON,ioos:station:SCCF:18:1,2013-06-01T20:00:00Z,26.6955,-81.8138,1.58,7.76,1111122 
SCCF RECON,ioos:station:SCCF:18:1,2013-06-01T21:00:00Z,26.6955,-81.8138,1.54,8.15,1111122 
SCCF RECON,ioos:station:SCCF:18:1,2013-06-01T22:00:00Z,26.6955,-81.8138,1.47,7.8,1111122 
SCCF RECON,ioos:station:SCCF:18:1,2013-06-01T23:00:00Z,26.6955,-81.8138,1.458,7.56,1111122 
SCCF RECON,ioos:station:SCCF:18:1,2013-06-02T00:00:00Z,26.6955,-81.8138,1.53,7.7,1111122 
SCCF RECON,ioos:station:SCCF:18:1,2013-06-02T01:00:00Z,26.6955,-81.8138,1.59,7.28,1111122 
SCCF RECON,ioos:station:SCCF:18:1,2013-06-02T02:00:00Z,26.6955,-81.8138,1.63,7.41,1111122 
SCCF RECON,ioos:station:SCCF:18:1,2013-06-02T03:00:00Z,26.6955,-81.8138,1.65,7.5,1111122 
SCCF RECON,ioos:station:SCCF:18:1,2013-06-02T04:00:00Z,26.6955,-81.8138,1.66,7.51,1111122 
SCCF RECON,ioos:station:SCCF:18:1,2013-06-02T05:00:00Z,26.6955,-81.8138,1.64,7.23,1111122 
SCCF RECON,ioos:station:SCCF:18:1,2013-06-02T06:00:00Z,26.6955,-81.8138,1.0,-9999.0,1111122 
SCCF RECON,ioos:station:SCCF:18:1,2013-06-02T07:00:00Z,26.6955,-81.8138,1.53,6.8,1111122 
SCCF RECON,ioos:station:SCCF:18:1,2013-06-02T08:00:00Z,26.6955,-81.8138,1.5,6.63,1111122 
SCCF RECON,ioos:station:SCCF:18:1,2013-06-02T09:00:00Z,26.6955,-81.8138,1.47,6.63,1111122 
SCCF RECON,ioos:station:SCCF:18:1,2013-06-02T10:00:00Z,26.6955,-81.8138,1.43,6.04,1111122 
SCCF RECON,ioos:station:SCCF:18:1,2013-06-02T11:00:00Z,26.6955,-81.8138,1.421,5.88,1111122 
SCCF RECON,ioos:station:SCCF:18:1,2013-06-02T12:00:00Z,26.6955,-81.8138,1.5,6.17,1111122 
SCCF RECON,ioos:station:SCCF:18:1,2013-06-02T13:00:00Z,26.6955,-81.8138,1.59,6.48,1111122 
SCCF RECON,ioos:station:SCCF:18:1,2013-06-02T14:00:00Z,26.6955,-81.8138,1.63,6.79,1111122 
SCCF RECON,ioos:station:SCCF:18:1,2013-06-02T15:00:00Z,26.6955,-81.8138,1.662,7.11,1111122 
SCCF RECON,ioos:station:SCCF:18:1,2013-06-02T16:00:00Z,26.6955,-81.8138,1.72,7.06,1111122 
SCCF RECON,ioos:station:SCCF:18:1,2013-06-02T17:00:00Z,26.6955,-81.8138,1.77,7.09,1111122 
SCCF RECON,ioos:station:SCCF:18:1,2013-06-02T18:00:00Z,26.6955,-81.8138,1.76,6.79,1111122 
SCCF RECON,ioos:station:SCCF:18:1,2013-06-02T19:00:00Z,26.6955,-81.8138,1.7,8.12,1111122 
SCCF RECON,ioos:station:SCCF:18:1,2013-06-02T20:00:00Z,26.6955,-81.8138,1.62,8.12,1111122 
SCCF RECON,ioos:station:SCCF:18:1,2013-06-02T21:00:00Z,26.6955,-81.8138,1.59,8.37,1111122 
SCCF RECON,ioos:station:SCCF:18:1,2013-06-02T22:00:00Z,26.6955,-81.8138,1.58,9.04,1111122 
SCCF RECON,ioos:station:SCCF:18:1,2013-06-02T23:00:00Z,26.6955,-81.8138,1.54,8.36,1111122 
SCCF RECON,ioos:station:SCCF:18:1,2013-06-03T00:00:00Z,26.6955,-81.8138,1.51,7.73,1111122 
SCCF RECON,ioos:station:SCCF:18:1,2013-06-03T01:00:00Z,26.6955,-81.8138,1.56,7.57,1111122 
SCCF RECON,ioos:station:SCCF:18:1,2013-06-03T02:00:00Z,26.6955,-81.8138,1.595,7.73,1111122 
SCCF RECON,ioos:station:SCCF:18:1,2013-06-03T03:00:00Z,26.6955,-81.8138,1.63,7.72,1111122 
SCCF RECON,ioos:station:SCCF:18:1,2013-06-03T04:00:00Z,26.6955,-81.8138,1.67,7.91,1111122 
SCCF RECON,ioos:station:SCCF:18:1,2013-06-03T05:00:00Z,26.6955,-81.8138,1.7,7.09,1111122 
SCCF RECON,ioos:station:SCCF:18:1,2013-06-03T06:00:00Z,26.6955,-81.8138,1.71,7.81,1111122 
SCCF RECON,ioos:station:SCCF:18:1,2013-06-03T07:00:00Z,26.6955,-81.8138,1.68,7.22,1111122 
SCCF RECON,ioos:station:SCCF:18:1,2013-06-03T08:00:00Z,26.6955,-81.8138,1.62,7.07,1111122 
SCCF RECON,ioos:station:SCCF:18:1,2013-06-03T09:00:00Z,26.6955,-81.8138,1.56,7.15,1111122 
SCCF RECON,ioos:station:SCCF:18:1,2013-06-03T10:00:00Z,26.6955,-81.8138,1.53,6.82,1111122 
SCCF RECON,ioos:station:SCCF:18:1,2013-06-03T11:00:00Z,26.6955,-81.8138,1.51,6.49,1111122 
SCCF RECON,ioos:station:SCCF:18:1,2013-06-03T12:00:00Z,26.6955,-81.8138,1.5,6.34,1111122 
SCCF RECON,ioos:station:SCCF:18:1,2013-06-03T13:00:00Z,26.6955,-81.8138,1.57,6.74,1111122 
SCCF RECON,ioos:station:SCCF:18:1,2013-06-03T14:00:00Z,26.6955,-81.8138,1.65,6.52,1111122 
SCCF RECON,ioos:station:SCCF:18:1,2013-06-03T15:00:00Z,26.6955,-81.8138,1.71,6.49,1111122 
SCCF RECON,ioos:station:SCCF:18:1,2013-06-03T16:00:00Z,26.6955,-81.8138,1.76,6.67,1111122 
SCCF RECON,ioos:station:SCCF:18:1,2013-06-03T17:00:00Z,26.6955,-81.8138,1.81,7.55,1111122 
SCCF RECON,ioos:station:SCCF:18:1,2013-06-03T18:00:00Z,26.6955,-81.8138,1.83,7.43,1111122 
SCCF RECON,ioos:station:SCCF:18:1,2013-06-03T19:00:00Z,26.6955,-81.8138,1.78,8.24,1111122 
SCCF RECON,ioos:station:SCCF:18:1,2013-06-03T20:00:00Z,26.6955,-81.8138,1.76,7.83,1111122 
SCCF RECON,ioos:station:SCCF:18:1,2013-06-03T21:00:00Z,26.6955,-81.8138,1.68,7.36,1111122 
SCCF RECON,ioos:station:SCCF:18:1,2013-06-03T22:00:00Z,26.6955,-81.8138,1.61,7.27,1111122 
SCCF RECON,ioos:station:SCCF:18:1,2013-06-03T23:00:00Z,26.6955,-81.8138,1.54,6.98,1111122 
SCCF RECON,ioos:station:SCCF:18:1,2013-06-04T00:00:00Z,26.6955,-81.8138,1.5,7.29,1111122 
SCCF RECON,ioos:station:SCCF:18:1,2013-06-04T01:00:00Z,26.6955,-81.8138,1.48,7.66,1111122 
SCCF RECON,ioos:station:SCCF:18:1,2013-06-04T02:00:00Z,26.6955,-81.8138,1.47,7.44,1111122 
SCCF RECON,ioos:station:SCCF:18:1,2013-06-04T03:00:00Z,26.6955,-81.8138,1.5,6.9,1111122 
SCCF RECON,ioos:station:SCCF:18:1,2013-06-04T04:00:00Z,26.6955,-81.8138,1.55,6.74,1111122 
SCCF RECON,ioos:station:SCCF:18:1,2013-06-04T05:00:00Z,26.6955,-81.8138,1.6,6.32,1111122 
SCCF RECON,ioos:station:SCCF:18:1,2013-06-04T06:00:00Z,26.6955,-81.8138,1.64,6.7,1111122 
SCCF RECON,ioos:station:SCCF:18:1,2013-06-04T07:00:00Z,26.6955,-81.8138,1.66,6.64,1111122 
SCCF RECON,ioos:station:SCCF:18:1,2013-06-04T08:00:00Z,26.6955,-81.8138,1.66,6.4,1111122 
SCCF RECON,ioos:station:SCCF:18:1,2013-06-04T09:00:00Z,26.6955,-81.8138,1.7,6.3,1111122 
SCCF RECON,ioos:station:SCCF:18:1,2013-06-04T10:00:00Z,26.6955,-81.8138,1.64,6.2,1111122 
SCCF RECON,ioos:station:SCCF:18:1,2013-06-04T11:00:00Z,26.6955,-81.8138,1.587,5.81,1111122 
SCCF RECON,ioos:station:SCCF:18:1,2013-06-04T12:00:00Z,26.6955,-81.8138,1.53,5.8,1111122 
SCCF RECON,ioos:station:SCCF:18:1,2013-06-04T13:00:00Z,26.6955,-81.8138,1.54,5.9,1111122 
SCCF RECON,ioos:station:SCCF:18:1,2013-06-04T14:00:00Z,26.6955,-81.8138,1.61,6.02,1111122 
SCCF RECON,ioos:station:SCCF:18:1,2013-06-04T15:00:00Z,26.6955,-81.8138,1.69,6.14,1111122 
SCCF RECON,ioos:station:SCCF:18:1,2013-06-04T16:00:00Z,26.6955,-81.8138,1.75,6.32,1111122 
SCCF RECON,ioos:station:SCCF:18:1,2013-06-04T17:00:00Z,26.6955,-81.8138,1.78,6.94,1111122 
SCCF RECON,ioos:station:SCCF:18:1,2013-06-04T18:00:00Z,26.6955,-81.8138,1.8,6.56,1111122 
SCCF RECON,ioos:station:SCCF:18:1,2013-06-04T19:00:00Z,26.6955,-81.8138,1.76,7.47,1111122 
SCCF RECON,ioos:station:SCCF:18:1,2013-06-04T20:00:00Z,26.6955,-81.8138,1.69,7.42,1111122 
SCCF RECON,ioos:station:SCCF:18:1,2013-06-04T21:00:00Z,26.6955,-81.8138,1.62,7.89,1111122 
SCCF RECON,ioos:station:SCCF:18:1,2013-06-04T22:00:00Z,26.6955,-81.8138,1.566,8.11,1111122 
SCCF RECON,ioos:station:SCCF:18:1,2013-06-04T23:00:00Z,26.6955,-81.8138,1.52,7.4,1111122 
SCCF RECON,ioos:station:SCCF:18:1,2013-06-05T00:00:00Z,26.6955,-81.8138,1.47,7.13,1111122 
SCCF RECON,ioos:station:SCCF:18:1,2013-06-05T01:00:00Z,26.6955,-81.8138,1.427,7.13,1111122 
SCCF RECON,ioos:station:SCCF:18:1,2013-06-05T02:00:00Z,26.6955,-81.8138,1.4,6.88,1111122 
SCCF RECON,ioos:station:SCCF:18:1,2013-06-05T03:00:00Z,26.6955,-81.8138,1.39,6.43,1111122 
SCCF RECON,ioos:station:SCCF:18:1,2013-06-05T04:00:00Z,26.6955,-81.8138,1.416,6.34,1111122 
SCCF RECON,ioos:station:SCCF:18:1,2013-06-05T05:00:00Z,26.6955,-81.8138,1.45,6.21,1111122 
SCCF RECON,ioos:station:SCCF:18:1,2013-06-05T06:00:00Z,26.6955,-81.8138,1.49,6.19,1111122 
SCCF RECON,ioos:station:SCCF:18:1,2013-06-05T07:00:00Z,26.6955,-81.8138,1.54,6.13,1111122 
SCCF RECON,ioos:station:SCCF:18:1,2013-06-05T08:00:00Z,26.6955,-81.8138,1.55,6.11,1111122 
SCCF RECON,ioos:station:SCCF:18:1,2013-06-05T09:00:00Z,26.6955,-81.8138,1.53,6.24,1111122 
SCCF RECON,ioos:station:SCCF:18:1,2013-06-05T10:00:00Z,26.6955,-81.8138,1.49,5.68,1111122 
SCCF RECON,ioos:station:SCCF:18:1,2013-06-05T11:00:00Z,26.6955,-81.8138,1.46,5.47,1111122 
SCCF RECON,ioos:station:SCCF:18:1,2013-06-05T12:00:00Z,26.6955,-81.8138,1.43,5.41,1111122 
SCCF RECON,ioos:station:SCCF:18:1,2013-06-05T13:00:00Z,26.6955,-81.8138,1.42,5.47,1111122 
SCCF RECON,ioos:station:SCCF:18:1,2013-06-05T14:00:00Z,26.6955,-81.8138,1.47,5.62,1111122 
SCCF RECON,ioos:station:SCCF:18:1,2013-06-05T15:00:00Z,26.6955,-81.8138,1.54,5.69,1111122 
SCCF RECON,ioos:station:SCCF:18:1,2013-06-05T16:00:00Z,26.6955,-81.8138,1.61,6.0,1111122 
SCCF RECON,ioos:station:SCCF:18:1,2013-06-05T17:00:00Z,26.6955,-81.8138,1.65,5.95,1111122 
SCCF RECON,ioos:station:SCCF:18:1,2013-06-05T18:00:00Z,26.6955,-81.8138,1.69,6.82,1111122 
SCCF RECON,ioos:station:SCCF:18:1,2013-06-05T19:00:00Z,26.6955,-81.8138,1.72,6.52,1111122 
SCCF RECON,ioos:station:SCCF:18:1,2013-06-05T20:00:00Z,26.6955,-81.8138,1.65,6.5,1111122 
SCCF RECON,ioos:station:SCCF:18:1,2013-06-05T21:00:00Z,26.6955,-81.8138,1.57,6.34,1111122 
SCCF RECON,ioos:station:SCCF:18:1,2013-06-05T22:00:00Z,26.6955,-81.8138,1.49,6.35,1111122 
SCCF RECON,ioos:station:SCCF:18:1,2013-06-05T23:00:00Z,26.6955,-81.8138,1.45,6.22,1111122 
SCCF RECON,ioos:station:SCCF:18:1,2013-06-06T00:00:00Z,26.6955,-81.8138,1.41,6.13,1111122 
SCCF RECON,ioos:station:SCCF:18:1,2013-06-06T01:00:00Z,26.6955,-81.8138,1.362,6.12,1111122 
SCCF RECON,ioos:station:SCCF:18:1,2013-06-06T02:00:00Z,26.6955,-81.8138,1.32,5.96,1111122 
SCCF RECON,ioos:station:SCCF:18:1,2013-06-06T03:00:00Z,26.6955,-81.8138,1.31,5.77,1111122 
SCCF RECON,ioos:station:SCCF:18:1,2013-06-06T04:00:00Z,26.6955,-81.8138,1.33,5.78,1111122 
SCCF RECON,ioos:station:SCCF:18:1,2013-06-06T05:00:00Z,26.6955,-81.8138,1.39,5.92,1111122 
SCCF RECON,ioos:station:SCCF:18:1,2013-06-06T06:00:00Z,26.6955,-81.8138,1.44,5.93,1111122 
SCCF RECON,ioos:station:SCCF:18:1,2013-06-06T07:00:00Z,26.6955,-81.8138,1.51,6.05,1111122 
SCCF RECON,ioos:station:SCCF:18:1,2013-06-06T08:00:00Z,26.6955,-81.8138,1.619,5.82,1111122 
SCCF RECON,ioos:station:SCCF:18:1,2013-06-06T09:00:00Z,26.6955,-81.8138,1.62,6.05,1111122 
SCCF RECON,ioos:station:SCCF:18:1,2013-06-06T10:00:00Z,26.6955,-81.8138,1.63,5.97,1111122 
SCCF RECON,ioos:station:SCCF:18:1,2013-06-06T11:00:00Z,26.6955,-81.8138,1.65,5.94,1111122 
SCCF RECON,ioos:station:SCCF:18:1,2013-06-06T12:00:00Z,26.6955,-81.8138,1.69,5.98,1111122 
SCCF RECON,ioos:station:SCCF:18:1,2013-06-06T13:00:00Z,26.6955,-81.8138,1.66,5.67,1111122 
SCCF RECON,ioos:station:SCCF:18:1,2013-06-06T14:00:00Z,26.6955,-81.8138,1.68,5.54,1111122 
SCCF RECON,ioos:station:SCCF:18:1,2013-06-06T15:00:00Z,26.6955,-81.8138,1.77,5.54,1111122 
SCCF RECON,ioos:station:SCCF:18:1,2013-06-06T16:00:00Z,26.6955,-81.8138,1.873,5.68,1111122 
SCCF RECON,ioos:station:SCCF:18:1,2013-06-06T17:00:00Z,26.6955,-81.8138,1.99,5.93,1111122 
SCCF RECON,ioos:station:SCCF:18:1,2013-06-06T18:00:00Z,26.6955,-81.8138,2.12,6.03,1111122 
SCCF RECON,ioos:station:SCCF:18:1,2013-06-06T19:00:00Z,26.6955,-81.8138,2.14,6.34,1111122 
SCCF RECON,ioos:station:SCCF:18:1,2013-06-06T20:00:00Z,26.6955,-81.8138,2.15,6.35,1111122 
SCCF RECON,ioos:station:SCCF:18:1,2013-06-06T21:00:00Z,26.6955,-81.8138,2.16,6.44,1111122 
SCCF RECON,ioos:station:SCCF:18:1,2013-06-06T22:00:00Z,26.6955,-81.8138,2.13,6.28,1111122 
SCCF RECON,ioos:station:SCCF:18:1,2013-06-06T23:00:00Z,26.6955,-81.8138,2.07,6.18,1111122 
SCCF RECON,ioos:station:SCCF:18:1,2013-06-07T00:00:00Z,26.6955,-81.8138,2.0,6.06,1111122 
SCCF RECON,ioos:station:SCCF:18:1,2013-06-07T01:00:00Z,26.6955,-81.8138,1.92,6.26,1111122 
SCCF RECON,ioos:station:SCCF:18:1,2013-06-07T02:00:00Z,26.6955,-81.8138,1.88,6.03,1111122 
SCCF RECON,ioos:station:SCCF:18:1,2013-06-07T03:00:00Z,26.6955,-81.8138,1.833,5.89,1111122 
SCCF RECON,ioos:station:SCCF:18:1,2013-06-07T04:00:00Z,26.6955,-81.8138,1.8,5.7,1111122 
SCCF RECON,ioos:station:SCCF:18:1,2013-06-07T05:00:00Z,26.6955,-81.8138,1.77,5.15,1111122 
SCCF RECON,ioos:station:SCCF:18:1,2013-06-07T06:00:00Z,26.6955,-81.8138,1.75,5.11,1111122 
SCCF RECON,ioos:station:SCCF:18:1,2013-06-07T07:00:00Z,26.6955,-81.8138,1.76,5.03,1111122 
SCCF RECON,ioos:station:SCCF:18:1,2013-06-07T08:00:00Z,26.6955,-81.8138,1.78,5.02,1111122 
SCCF RECON,ioos:station:SCCF:18:1,2013-06-07T09:00:00Z,26.6955,-81.8138,1.81,4.94,1111122 
SCCF RECON,ioos:station:SCCF:18:1,2013-06-07T10:00:00Z,26.6955,-81.8138,1.783,4.85,1111122 
SCCF RECON,ioos:station:SCCF:18:1,2013-06-07T11:00:00Z,26.6955,-81.8138,1.74,5.03,1111122 
SCCF RECON,ioos:station:SCCF:18:1,2013-06-07T12:00:00Z,26.6955,-81.8138,1.7,4.87,1111122 
SCCF RECON,ioos:station:SCCF:18:1,2013-06-07T13:00:00Z,26.6955,-81.8138,1.71,4.75,1111122 
SCCF RECON,ioos:station:SCCF:18:1,2013-06-07T14:00:00Z,26.6955,-81.8138,1.72,4.72,1111122 
SCCF RECON,ioos:station:SCCF:18:1,2013-06-07T15:00:00Z,26.6955,-81.8138,1.71,4.8,1111122 
SCCF RECON,ioos:station:SCCF:18:1,2013-06-07T16:00:00Z,26.6955,-81.8138,1.75,5.0,1111122 
SCCF RECON,ioos:station:SCCF:18:1,2013-06-07T17:00:00Z,26.6955,-81.8138,1.84,4.77,1111122 
SCCF RECON,ioos:station:SCCF:18:1,2013-06-07T18:00:00Z,26.6955,-81.8138,1.92,4.96,1111122 
SCCF RECON,ioos:station:SCCF:18:1,2013-06-07T19:00:00Z,26.6955,-81.8138,1.95,4.92,1111122 
SCCF RECON,ioos:station:SCCF:18:1,2013-06-07T20:00:00Z,26.6955,-81.8138,1.93,5.15,1111122 
SCCF RECON,ioos:station:SCCF:18:1,2013-06-07T21:00:00Z,26.6955,-81.8138,1.88,5.34,1111122 
SCCF RECON,ioos:station:SCCF:18:1,2013-06-07T22:00:00Z,26.6955,-81.8138,1.82,5.88,1111122 
SCCF RECON,ioos:station:SCCF:18:1,2013-06-07T23:00:00Z,26.6955,-81.8138,1.77,5.8,1111122 
SCCF RECON,ioos:station:SCCF:18:1,2013-06-08T00:00:00Z,26.6955,-81.8138,1.71,5.26,1111122 
SCCF RECON,ioos:station:SCCF:18:1,2013-06-08T01:00:00Z,26.6955,-81.8138,1.66,5.35,1111122 
SCCF RECON,ioos:station:SCCF:18:1,2013-06-08T02:00:00Z,26.6955,-81.8138,1.61,5.48,1111122 
SCCF RECON,ioos:station:SCCF:18:1,2013-06-08T03:00:00Z,26.6955,-81.8138,1.57,5.07,1111122 
SCCF RECON,ioos:station:SCCF:18:1,2013-06-08T04:00:00Z,26.6955,-81.8138,1.54,4.99,1111122 
SCCF RECON,ioos:station:SCCF:18:1,2013-06-08T05:00:00Z,26.6955,-81.8138,1.49,4.85,1111122 
SCCF RECON,ioos:station:SCCF:18:1,2013-06-08T06:00:00Z,26.6955,-81.8138,1.5,4.84,1111122 
SCCF RECON,ioos:station:SCCF:18:1,2013-06-08T07:00:00Z,26.6955,-81.8138,1.552,4.8,1111122 
SCCF RECON,ioos:station:SCCF:18:1,2013-06-08T08:00:00Z,26.6955,-81.8138,1.62,4.74,1111122 
SCCF RECON,ioos:station:SCCF:18:1,2013-06-08T09:00:00Z,26.6955,-81.8138,1.66,4.79,1111122 
SCCF RECON,ioos:station:SCCF:18:1,2013-06-08T10:00:00Z,26.6955,-81.8138,1.66,4.77,1111122 
SCCF RECON,ioos:station:SCCF:18:1,2013-06-08T11:00:00Z,26.6955,-81.8138,1.63,4.66,1111122 
SCCF RECON,ioos:station:SCCF:18:1,2013-06-08T12:00:00Z,26.6955,-81.8138,1.61,4.65,1111122 
SCCF RECON,ioos:station:SCCF:18:1,2013-06-08T13:00:00Z,26.6955,-81.8138,1.59,4.68,1111122 
SCCF RECON,ioos:station:SCCF:18:1,2013-06-08T14:00:00Z,26.6955,-81.8138,1.59,4.91,1111122 
SCCF RECON,ioos:station:SCCF:18:1,2013-06-08T15:00:00Z,26.6955,-81.8138,1.62,4.85,1111122 
SCCF RECON,ioos:station:SCCF:18:1,2013-06-08T16:00:00Z,26.6955,-81.8138,1.71,5.22,1111122 
SCCF RECON,ioos:station:SCCF:18:1,2013-06-08T17:00:00Z,26.6955,-81.8138,1.769,5.39,1111122 
SCCF RECON,ioos:station:SCCF:18:1,2013-06-08T18:00:00Z,26.6955,-81.8138,1.84,5.57,1111122 
SCCF RECON,ioos:station:SCCF:18:1,2013-06-08T19:00:00Z,26.6955,-81.8138,1.88,5.25,1111122 
SCCF RECON,ioos:station:SCCF:18:1,2013-06-08T20:00:00Z,26.6955,-81.8138,1.91,4.88,1111122 
SCCF RECON,ioos:station:SCCF:18:1,2013-06-08T21:00:00Z,26.6955,-81.8138,1.9,6.31,1111122 
SCCF RECON,ioos:station:SCCF:18:1,2013-06-08T22:00:00Z,26.6955,-81.8138,1.82,6.44,1111122 
SCCF RECON,ioos:station:SCCF:18:1,2013-06-08T23:00:00Z,26.6955,-81.8138,1.75,6.56,1111122 
SCCF RECON,ioos:station:SCCF:18:1,2013-06-09T00:00:00Z,26.6955,-81.8138,1.7,6.26,1111122 
SCCF RECON,ioos:station:SCCF:18:1,2013-06-09T01:00:00Z,26.6955,-81.8138,1.65,6.33,1111122 
SCCF RECON,ioos:station:SCCF:18:1,2013-06-09T02:00:00Z,26.6955,-81.8138,1.6,5.89,1111122 
SCCF RECON,ioos:station:SCCF:18:1,2013-06-09T03:00:00Z,26.6955,-81.8138,1.55,5.59,1111122 
SCCF RECON,ioos:station:SCCF:18:1,2013-06-09T04:00:00Z,26.6955,-81.8138,1.51,5.61,1111122 
SCCF RECON,ioos:station:SCCF:18:1,2013-06-09T05:00:00Z,26.6955,-81.8138,1.47,5.5,1111122 
SCCF RECON,ioos:station:SCCF:18:1,2013-06-09T06:00:00Z,26.6955,-81.8138,1.45,5.49,1111122 
SCCF RECON,ioos:station:SCCF:18:1,2013-06-09T07:00:00Z,26.6955,-81.8138,1.46,5.41,1111122 
SCCF RECON,ioos:station:SCCF:18:1,2013-06-09T08:00:00Z,26.6955,-81.8138,1.53,5.34,1111122 
SCCF RECON,ioos:station:SCCF:18:1,2013-06-09T09:00:00Z,26.6955,-81.8138,1.59,5.33,1111122 
SCCF RECON,ioos:station:SCCF:18:1,2013-06-09T10:00:00Z,26.6955,-81.8138,1.61,5.33,1111122 
SCCF RECON,ioos:station:SCCF:18:1,2013-06-09T11:00:00Z,26.6955,-81.8138,1.6,5.19,1111122 
SCCF RECON,ioos:station:SCCF:18:1,2013-06-09T12:00:00Z,26.6955,-81.8138,1.6,5.18,1111122 
SCCF RECON,ioos:station:SCCF:18:1,2013-06-09T13:00:00Z,26.6955,-81.8138,1.58,5.15,1111122 
SCCF RECON,ioos:station:SCCF:18:1,2013-06-09T14:00:00Z,26.6955,-81.8138,1.54,5.39,1111122 
SCCF RECON,ioos:station:SCCF:18:1,2013-06-09T15:00:00Z,26.6955,-81.8138,1.5,5.65,1111122 
SCCF RECON,ioos:station:SCCF:18:1,2013-06-09T16:00:00Z,26.6955,-81.8138,1.52,5.7,1111122 
SCCF RECON,ioos:station:SCCF:18:1,2013-06-09T17:00:00Z,26.6955,-81.8138,1.62,5.88,1111122 
SCCF RECON,ioos:station:SCCF:18:1,2013-06-09T18:00:00Z,26.6955,-81.8138,1.7,5.61,1111122 
SCCF RECON,ioos:station:SCCF:18:1,2013-06-09T19:00:00Z,26.6955,-81.8138,1.75,7.02,1111122 
SCCF RECON,ioos:station:SCCF:18:1,2013-06-09T20:00:00Z,26.6955,-81.8138,1.8,7.36,1111122 
SCCF RECON,ioos:station:SCCF:18:1,2013-06-09T21:00:00Z,26.6955,-81.8138,1.86,7.74,1111122 
SCCF RECON,ioos:station:SCCF:18:1,2013-06-09T22:00:00Z,26.6955,-81.8138,1.83,7.62,1111122 
SCCF RECON,ioos:station:SCCF:18:1,2013-06-09T23:00:00Z,26.6955,-81.8138,1.77,6.45,1111122 
SCCF RECON,ioos:station:SCCF:18:1,2013-06-10T00:00:00Z,26.6955,-81.8138,1.69,6.75,1111122 
SCCF RECON,ioos:station:SCCF:18:1,2013-06-10T01:00:00Z,26.6955,-81.8138,1.63,6.88,1111122 
SCCF RECON,ioos:station:SCCF:18:1,2013-06-10T02:00:00Z,26.6955,-81.8138,1.592,6.21,1111122 
SCCF RECON,ioos:station:SCCF:18:1,2013-06-10T03:00:00Z,26.6955,-81.8138,1.56,6.16,1111122 
SCCF RECON,ioos:station:SCCF:18:1,2013-06-10T04:00:00Z,26.6955,-81.8138,1.51,5.95,1111122 
SCCF RECON,ioos:station:SCCF:18:1,2013-06-10T05:00:00Z,26.6955,-81.8138,1.47,5.61,1111122 
SCCF RECON,ioos:station:SCCF:18:1,2013-06-10T06:00:00Z,26.6955,-81.8138,1.46,5.79,1111122 
SCCF RECON,ioos:station:SCCF:18:1,2013-06-10T07:00:00Z,26.6955,-81.8138,1.51,5.43,1111122 
SCCF RECON,ioos:station:SCCF:18:1,2013-06-10T08:00:00Z,26.6955,-81.8138,1.571,5.52,1111122 
SCCF RECON,ioos:station:SCCF:18:1,2013-06-10T09:00:00Z,26.6955,-81.8138,1.63,5.58,1111122 
SCCF RECON,ioos:station:SCCF:18:1,2013-06-10T10:00:00Z,26.6955,-81.8138,1.66,5.37,1111122 
SCCF RECON,ioos:station:SCCF:18:1,2013-06-10T11:00:00Z,26.6955,-81.8138,1.68,5.29,1111122 
SCCF RECON,ioos:station:SCCF:18:1,2013-06-10T12:00:00Z,26.6955,-81.8138,1.66,5.36,1111122 
SCCF RECON,ioos:station:SCCF:18:1,2013-06-10T13:00:00Z,26.6955,-81.8138,1.61,5.39,1111122 
SCCF RECON,ioos:station:SCCF:18:1,2013-06-10T14:00:00Z,26.6955,-81.8138,1.562,5.57,1111122 
SCCF RECON,ioos:station:SCCF:18:1,2013-06-10T15:00:00Z,26.6955,-81.8138,1.54,5.76,1111122 
SCCF RECON,ioos:station:SCCF:18:1,2013-06-10T16:00:00Z,26.6955,-81.8138,1.54,6.15,1111122 
SCCF RECON,ioos:station:SCCF:18:1,2013-06-10T17:00:00Z,26.6955,-81.8138,1.59,6.46,1111122 
SCCF RECON,ioos:station:SCCF:18:1,2013-06-10T18:00:00Z,26.6955,-81.8138,1.68,7.01,1111122 
SCCF RECON,ioos:station:SCCF:18:1,2013-06-10T19:00:00Z,26.6955,-81.8138,1.74,6.64,1111122 
SCCF RECON,ioos:station:SCCF:18:1,2013-06-10T20:00:00Z,26.6955,-81.8138,1.77,7.84,1111122 
SCCF RECON,ioos:station:SCCF:18:1,2013-06-10T21:00:00Z,26.6955,-81.8138,1.82,6.92,1111122 
SCCF RECON,ioos:station:SCCF:18:1,2013-06-10T22:00:00Z,26.6955,-81.8138,1.83,7.53,1111122 
SCCF RECON,ioos:station:SCCF:18:1,2013-06-10T23:00:00Z,26.6955,-81.8138,1.8,8.06,1111122 
SCCF RECON,ioos:station:SCCF:18:1,2013-06-11T00:00:00Z,26.6955,-81.8138,1.71,6.6,1111122 
SCCF RECON,ioos:station:SCCF:18:1,2013-06-11T01:00:00Z,26.6955,-81.8138,1.65,7.52,1111122 
SCCF RECON,ioos:station:SCCF:18:1,2013-06-11T02:00:00Z,26.6955,-81.8138,1.61,6.45,1111122 
SCCF RECON,ioos:station:SCCF:18:1,2013-06-11T03:00:00Z,26.6955,-81.8138,1.57,6.32,1111122 
SCCF RECON,ioos:station:SCCF:18:1,2013-06-11T04:00:00Z,26.6955,-81.8138,1.506,6.33,1111122 
SCCF RECON,ioos:station:SCCF:18:1,2013-06-11T05:00:00Z,26.6955,-81.8138,1.45,6.02,1111122 
SCCF RECON,ioos:station:SCCF:18:1,2013-06-11T06:00:00Z,26.6955,-81.8138,1.42,5.68,1111122 
SCCF RECON,ioos:station:SCCF:18:1,2013-06-11T07:00:00Z,26.6955,-81.8138,1.41,5.87,1111122 
SCCF RECON,ioos:station:SCCF:18:1,2013-06-11T08:00:00Z,26.6955,-81.8138,1.47,5.77,1111122 
SCCF RECON,ioos:station:SCCF:18:1,2013-06-11T09:00:00Z,26.6955,-81.8138,1.55,5.45,1111122 
SCCF RECON,ioos:station:SCCF:18:1,2013-06-11T10:00:00Z,26.6955,-81.8138,1.61,5.49,1111122 
SCCF RECON,ioos:station:SCCF:18:1,2013-06-11T11:00:00Z,26.6955,-81.8138,1.64,5.41,1111122 
SCCF RECON,ioos:station:SCCF:18:1,2013-06-11T12:00:00Z,26.6955,-81.8138,1.65,5.35,1111122 
SCCF RECON,ioos:station:SCCF:18:1,2013-06-11T13:00:00Z,26.6955,-81.8138,1.63,5.23,1111122 
SCCF RECON,ioos:station:SCCF:18:1,2013-06-11T14:00:00Z,26.6955,-81.8138,1.57,5.46,1111122 
SCCF RECON,ioos:station:SCCF:18:1,2013-06-11T15:00:00Z,26.6955,-81.8138,1.53,5.18,1111122 
SCCF RECON,ioos:station:SCCF:18:1,2013-06-11T16:00:00Z,26.6955,-81.8138,1.52,5.38,1111122 
SCCF RECON,ioos:station:SCCF:18:1,2013-06-11T17:00:00Z,26.6955,-81.8138,0.966,5.88,1111122 
SCCF RECON,ioos:station:SCCF:18:1,2013-06-11T18:00:00Z,26.6955,-81.8138,1.53,6.4,1111122 
SCCF RECON,ioos:station:SCCF:18:1,2013-06-11T19:00:00Z,26.6955,-81.8138,1.62,7.14,1111122 
SCCF RECON,ioos:station:SCCF:18:1,2013-06-11T20:00:00Z,26.6955,-81.8138,1.66,5.83,1111122 
SCCF RECON,ioos:station:SCCF:18:1,2013-06-11T21:00:00Z,26.6955,-81.8138,1.69,5.52,1111122 